Location: Unspecified
(0.0000°N, 0.0000°E)
Time: 12:29:25
(UTC+00:00)

STARLINK 1044 - Pass Details

Date: 12 December 2019
Orbit: 341 x 345 km, 53.0° (Epoch: 11 December)

Event Time Altitude Azimuth Distance (km) Brightness Sun altitude
Rises 18:56:51 0° 194° (SSW) 2,106 7.2 -14.5°
Reaches altitude 10° 18:59:07 10° 176° (S) 1,271 5.7 -15.0°
Enters shadow 19:01:09 20° 130° (SE) 842 4.3 -15.5°
